Location: Mactaquac Provincial Park
(45.9573°N, 66.8897°W)
Time: 16:53:57
(UTC-03:00)

Cosmos 1867 - Visible Passes

Search period start: 29 June 2016 00:00
Search period end: 09 July 2016 00:00
Orbit: 773 x 803 km, 65.0° (Epoch: 28 June)

Date Brightness Start Highest point End Pass type
(mag) Time Alt. Az. Time Alt. Az. Time Alt. Az.
29 Jun 5.7 00:16:09 10° NNW 00:20:21 22° NNE 00:24:33 10° E visible
29 Jun 3.5 01:59:14 10° NW 02:04:45 85° NE 02:07:41 29° SE visible
29 Jun 5.1 03:44:21 10° WNW 03:47:37 16° WSW 03:48:17 16° WSW visible
29 Jun 6.6 22:02:15 10° N 22:02:28 10° N 22:02:44 10° N visible
29 Jun 5.9 23:44:38 10° NNW 23:48:26 19° NNE 23:52:12 10° ENE visible
30 Jun 3.8 01:27:36 10° NNW 01:33:05 66° NE 01:36:10 26° SE visible
30 Jun 4.8 03:12:04 10° WNW 03:16:12 22° WSW 03:16:46 22° WSW visible
30 Jun 6.0 23:13:09 10° NNW 23:16:28 16° NNE 23:19:48 10° ENE visible
01 Jul 4.2 00:55:59 10° NNW 01:01:22 51° NE 01:04:45 22° ESE visible
01 Jul 4.5 02:40:02 10° NW 02:44:43 29° WSW 02:45:23 29° SW visible
01 Jul 6.1 22:41:40 10° N 22:44:29 14° NNE 22:47:18 10° NE visible
02 Jul 4.6 00:24:25 10° NNW 00:29:37 41° NE 00:33:27 17° ESE visible
02 Jul 4.1 02:08:09 10° NW 02:13:13 39° WSW 02:14:04 37° SW visible
02 Jul 6.1 22:10:11 10° N 22:12:28 12° NNE 22:14:44 10° NE visible
02 Jul 5.0 23:52:52 10° NNW 23:57:49 33° NE 00:02:13 12° ESE visible
03 Jul 3.8 01:36:21 10° NW 01:41:40 52° WSW 01:42:50 44° SSW visible
03 Jul 5.2 23:21:20 10° NNW 23:25:59 27° NE 23:30:36 10° E visible
04 Jul 3.5 01:04:37 10° NW 01:10:05 70° WSW 01:11:41 45° S visible
04 Jul 5.7 02:51:32 10° W 02:52:18 11° W 02:52:18 11° W visible
04 Jul 5.5 22:49:49 10° NNW 22:54:07 23° NNE 22:58:23 10° E visible
05 Jul 3.5 00:32:56 10° NW 00:38:27 90° NE 00:40:34 39° SE visible
05 Jul 5.4 02:18:15 10° WNW 02:21:12 15° WSW 02:21:12 15° WSW visible
05 Jul 5.7 22:18:19 10° NNW 22:22:12 19° NNE 22:26:04 10° ENE visible
06 Jul 3.7 00:01:18 10° NNW 00:06:48 70° NE 00:09:31 30° SE visible
06 Jul 5.1 01:45:53 10° WNW 01:49:51 21° WSW 01:50:09 21° WSW visible
06 Jul 4.1 23:29:41 10° NNW 23:35:05 54° NE 23:38:31 22° ESE visible
07 Jul 4.7 01:13:48 10° NW 01:18:23 28° WSW 01:19:09 27° SW visible
07 Jul 4.4 22:58:07 10° NNW 23:03:21 43° NE 23:07:33 15° ESE visible
08 Jul 4.4 00:41:54 10° NW 00:46:54 37° WSW 00:48:12 32° SW visible
08 Jul 4.8 22:26:33 10° NNW 22:31:34 34° NE 22:36:31 10° ESE visible
